Location: Goodfare
(55.2420°N, 119.7689°W)
Time: 04:55:09
(UTC+00:00)

ISS - Pass Details

Date: 03 December 2021
Orbit: 413 x 423 km, 51.6° (Epoch: 18 January)

Event Time Altitude Azimuth Distance (km) Brightness Sun altitude
Rises 02:07:59 0° 274° (W) 2,385 1.5 -20.7°
Reaches altitude 10° 02:10:17 10° 262° (W) 1,515 0.3 -21.0°
Maximum altitude 02:13:12 27° 203° (SSW) 859 -1.9 -21.4°
Enters shadow 02:13:52 25° 182° (S) 904 -2.0 -21.5°
